Location: Bishopstone
(51.0167°N, 1.9000°W)
Time: 17:42:33
(UTC+00:00)

Cosmos 1190 Rocket - Pass Details

Date: 16 September 2019
Orbit: 757 x 780 km, 74.1° (Epoch: 19 October)

Event Time Altitude Azimuth Distance (km) Brightness Sun altitude
Rises 20:31:30 0° 333° (NNW) 3,275 8.3 -20.3°
Reaches altitude 10° 20:33:55 10° 330° (NNW) 2,341 7.4 -20.6°
Maximum altitude 20:39:10 63° 251° (WSW) 864 4.3 -21.3°
Enters shadow 20:41:43 30° 180° (S) 1,364 5.0 -21.6°
